Location: Unspecified
(0.0000°N, 0.0000°E)
Time: 11:20:41
(UTC+02:00)

Vanguard 1 Rocket - Visible Passes

Search period start: 29 August 2015 00:00
Search period end: 08 September 2015 00:00
Orbit: 652 x 4226 km, 34.3° (Epoch: 25 August)

Date Brightness Start Highest point End Pass type
(mag) Time Alt. Az. Time Alt. Az. Time Alt. Az.
29 Aug 11.4 02:35:17 25° ESE 02:35:17 25° ESE 02:43:14 10° ESE visible
29 Aug 10.4 04:52:38 62° SSW 04:52:38 62° SSW 05:17:20 10° SE visible
29 Aug 11.2 07:09:59 13° WSW 07:28:54 29° SSW 07:47:04 10° SSE visible
30 Aug11.201:28:41ESE01:28:41ESE00:52:26NNWvisible
30 Aug 10.7 03:46:01 49° SE 03:46:01 49° SE 04:02:37 10° SE visible
30 Aug 10.7 06:03:22 34° WSW 06:11:40 39° SSW 06:33:55 10° SE visible
31 Aug 11.4 02:39:17 24° ESE 02:39:17 24° ESE 02:46:41 10° ESE visible
31 Aug 10.5 04:56:37 52° SSW 04:56:37 52° SSW 05:20:06 10° SE visible
31 Aug 11.3 07:13:56 10° WSW 07:33:35 25° SSW 07:50:34 10° SSE visible
01 Sep 10.8 03:49:45 44° SSE 03:49:45 44° SSE 04:05:27 10° SE visible
01 Sep 10.9 06:07:04 28° SW 06:15:57 33° SSW 06:36:57 10° SSE visible
02 Sep 11.4 02:42:48 24° SE 02:42:48 24° SE 02:49:50 10° SE visible
02 Sep 10.7 05:00:06 43° SSW 05:00:06 43° SSW 05:22:51 10° SE visible
02 Sep 11.4 07:19:45 10° WSW 07:38:33 23° SSW 07:54:32 10° SSE visible
03 Sep 10.9 03:53:04 40° SSE 03:53:04 40° SSE 04:08:09 10° SE visible
03 Sep 11.1 06:10:22 23° SW 06:20:33 28° SSW 06:40:15 10° SSE visible
04 Sep 11.4 02:45:57 23° SE 02:45:57 23° SE 02:52:44 10° SE visible
04 Sep 10.8 05:03:14 36° SSW 05:03:14 36° SSW 05:25:42 10° SE visible
04 Sep 11.5 07:25:45 10° SW 07:43:44 21° S 07:59:07 10° SE visible
05 Sep 11.0 03:56:03 36° SSE 03:56:03 36° SSE 04:10:48 10° SE visible
05 Sep 11.2 06:13:20 18° SW 06:25:27 25° SSW 06:43:57 10° SE visible
06 Sep 11.4 02:48:49 22° SE 02:48:49 22° SE 02:55:27 10° SE visible
06 Sep 11.0 05:06:05 31° SSW 05:07:39 31° SSW 05:28:44 10° SE visible
06 Sep 11.6 07:31:15 10° SW 07:49:00 21° S 08:04:18 10° SE visible
06 Sep 10.2 22:45:28 10° N 22:45:53 11° N 22:45:53 11° N visible
07 Sep 11.1 03:58:48 32° S 03:58:48 32° S 04:13:28 10° SE visible
07 Sep 11.3 06:16:04 14° SW 06:30:35 23° S 06:48:13 10° SE visible
